Quillayute, WA
on Saturday, November 24, 2012

Saturday
Previous Day Next Day
Daily Summary
 ActualAverageRecord
Temperature
Mean Temperature °F / °C 43°F / 6°C  
Max Temperature 50°F / 10°C 49°F / 9°C 60°F / 15°C (2013)
Min Temperature 32°F / 0°C 37°F / 3°C 9°F / -12°C (1985)
Degree Days
Heating Degree Days 24 22  
Month to date heating degree days 486  
Since 1 July heating degree days 1576  
Cooling Degree Days 0 0  
Month to date cooling degree days 0  
Year to date cooling degree days 19  
Moisture
Dew Point 39°F / 4°C   
Average Humidity 96    
Maximum Humidity 100    
Minimum Humidity 80    
Precipitation
Precipitation 0.03 in / 0.76 cm 0.53 in / 13.46 cm 3.47 in / 8.81 cm (2004)
Month to date precipitation 12.38  
Year to date precipitation 83.41  
Wind
Wind Speed 2 mph / 3 km/h   
Max Wind Speed 7 mph / 11 km/h   
Max Gust Speed 10 mph / 16 km/h   
Visibility 2 miles / 4 kilometers   
Events Fog , Rain   

Key: T is trace of precipitation, MM is missing value
Source: NWS Daily Summary
Time(PST)TemperatureDew PointHumidity Pressure Visibility Wind DirectionWind SpeedGust SpeedPrecipitationEvents Conditions
12:05 AM 37.4°F / 3.0°C 37.4°F / 3.0°C 100% 30.15 in / 1020.9 hPa 0.5 miles / 0.8 kilometers Calm Calm - N/A Fog Fog
12:28 AM 39.2°F / 4.0°C 39.2°F / 4.0°C 100% 30.16 in / 1021.2 hPa 1.0 miles / 1.6 kilometers Calm Calm - N/A   Overcast
12:32 AM 39.2°F / 4.0°C 39.2°F / 4.0°C 100% 30.16 in / 1021.2 hPa 2.5 miles / 4.0 kilometers Calm Calm - N/A   Overcast
12:53 AM 41.0°F / 5.0°C 41.0°F / 5.0°C 100% 30.16 in / 1021.3 hPa 3.0 miles / 4.8 kilometers SE 3.5 mph / 5.6 km/h - N/A   Overcast
1:27 AM 39.2°F / 4.0°C 37.4°F / 3.0°C 93% 30.17 in / 1021.6 hPa 1.8 miles / 2.8 kilometers Calm Calm - N/A   Mostly Cloudy
1:37 AM 39.2°F / 4.0°C 39.2°F / 4.0°C 100% 30.17 in / 1021.6 hPa 3.0 miles / 4.8 kilometers Calm Calm - N/A   Mostly Cloudy
1:53 AM 39.0°F / 3.9°C 39.0°F / 3.9°C 100% 30.18 in / 1021.9 hPa 5.0 miles / 8.0 kilometers Calm Calm - N/A   Mostly Cloudy
2:53 AM 37.9°F / 3.3°C 37.9°F / 3.3°C 100% 30.19 in / 1022.4 hPa 3.0 miles / 4.8 kilometers ENE 4.6 mph / 7.4 km/h - N/A   Scattered Clouds
3:32 AM 37.4°F / 3.0°C 37.4°F / 3.0°C 100% 30.19 in / 1022.2 hPa 2.5 miles / 4.0 kilometers Calm Calm - N/A   Mostly Cloudy
3:41 AM 39.2°F / 4.0°C 39.2°F / 4.0°C 100% 30.19 in / 1022.2 hPa 5.0 miles / 8.0 kilometers Calm Calm - N/A   Mostly Cloudy
3:53 AM 39.0°F / 3.9°C 37.9°F / 3.3°C 96% 30.19 in / 1022.4 hPa 4.0 miles / 6.4 kilometers Calm Calm - N/A   Overcast
4:20 AM 37.4°F / 3.0°C 37.4°F / 3.0°C 100% 30.19 in / 1022.2 hPa 1.5 miles / 2.4 kilometers Calm Calm - N/A   Overcast
4:31 AM 37.4°F / 3.0°C 37.4°F / 3.0°C 100% 30.19 in / 1022.2 hPa 3.0 miles / 4.8 kilometers Calm Calm - N/A   Overcast
4:45 AM 37.4°F / 3.0°C 37.4°F / 3.0°C 100% 30.20 in / 1022.6 hPa 2.0 miles / 3.2 kilometers Calm Calm - N/A   Mostly Cloudy
4:53 AM 39.0°F / 3.9°C 37.9°F / 3.3°C 96% 30.21 in / 1022.8 hPa 3.0 miles / 4.8 kilometers Calm Calm - N/A   Mostly Cloudy
5:26 AM 37.4°F / 3.0°C 37.4°F / 3.0°C 100% 30.21 in / 1022.9 hPa 2.0 miles / 3.2 kilometers East 3.5 mph / 5.6 km/h - N/A   Clear
5:34 AM 37.4°F / 3.0°C 37.4°F / 3.0°C 100% 30.21 in / 1022.9 hPa 1.2 miles / 2.0 kilometers East 3.5 mph / 5.6 km/h - N/A   Clear
5:43 AM 37.4°F / 3.0°C 35.6°F / 2.0°C 93% 30.21 in / 1022.9 hPa 0.5 miles / 0.8 kilometers Calm Calm - N/A Fog Fog
5:53 AM 36.0°F / 2.2°C 36.0°F / 2.2°C 100% 30.22 in / 1023.2 hPa 0.5 miles / 0.8 kilometers Calm Calm - N/A Fog Fog
6:09 AM 37.4°F / 3.0°C 37.4°F / 3.0°C 100% 30.22 in / 1023.2 hPa 1.0 miles / 1.6 kilometers Calm Calm - N/A   Overcast
6:19 AM 35.6°F / 2.0°C 35.6°F / 2.0°C 100% 30.22 in / 1023.2 hPa 0.8 miles / 1.2 kilometers Calm Calm - N/A   Mostly Cloudy
6:38 AM 35.6°F / 2.0°C 35.6°F / 2.0°C 100% 30.22 in / 1023.2 hPa 0.2 miles / 0.4 kilometers Calm Calm - N/A Fog Fog
6:53 AM 36.0°F / 2.2°C 36.0°F / 2.2°C 100% 30.22 in / 1023.4 hPa 0.5 miles / 0.8 kilometers Calm Calm - N/A Fog Fog
7:02 AM 35.6°F / 2.0°C 35.6°F / 2.0°C 100% 30.22 in / 1023.2 hPa 0.8 miles / 1.2 kilometers ENE 3.5 mph / 5.6 km/h - N/A   Mostly Cloudy
7:15 AM 35.6°F / 2.0°C 35.6°F / 2.0°C 100% 30.22 in / 1023.2 hPa 1.0 miles / 1.6 kilometers Calm Calm - N/A   Scattered Clouds
7:27 AM 35.6°F / 2.0°C 35.6°F / 2.0°C 100% 30.22 in / 1023.2 hPa 2.0 miles / 3.2 kilometers East 3.5 mph / 5.6 km/h - N/A   Partly Cloudy
7:36 AM 35.6°F / 2.0°C 35.6°F / 2.0°C 100% 30.23 in / 1023.6 hPa 5.0 miles / 8.0 kilometers ENE 5.8 mph / 9.3 km/h - N/A   Clear
7:53 AM 37.9°F / 3.3°C 37.9°F / 3.3°C 100% 30.24 in / 1023.9 hPa 5.0 miles / 8.0 kilometers East 5.8 mph / 9.3 km/h - N/A   Partly Cloudy
8:53 AM 41.0°F / 5.0°C 39.9°F / 4.4°C 96% 30.25 in / 1024.2 hPa 5.0 miles / 8.0 kilometers NE 4.6 mph / 7.4 km/h - N/A   Clear
9:38 AM 44.6°F / 7.0°C 42.8°F / 6.0°C 93% 30.25 in / 1024.3 hPa 6.0 miles / 9.7 kilometers ENE 4.6 mph / 7.4 km/h - N/A   Mostly Cloudy
9:53 AM 43.0°F / 6.1°C 41.0°F / 5.0°C 93% 30.26 in / 1024.6 hPa 6.0 miles / 9.7 kilometers Calm Calm - N/A   Overcast
10:40 AM 46.4°F / 8.0°C 44.6°F / 7.0°C 93% 30.26 in / 1024.6 hPa 6.0 miles / 9.7 kilometers North 4.6 mph / 7.4 km/h - N/A   Mostly Cloudy
10:53 AM 46.9°F / 8.3°C 44.1°F / 6.7°C 90% 30.26 in / 1024.7 hPa 6.0 miles / 9.7 kilometers North 4.6 mph / 7.4 km/h - N/A   Mostly Cloudy
11:18 AM 46.4°F / 8.0°C 42.8°F / 6.0°C 87% 30.26 in / 1024.6 hPa 6.0 miles / 9.7 kilometers NNW 4.6 mph / 7.4 km/h - 0.00 in / 0.0 cm Rain Light Rain
11:27 AM 46.4°F / 8.0°C 42.8°F / 6.0°C 87% 30.25 in / 1024.3 hPa 1.8 miles / 2.8 kilometers Calm Calm - 0.00 in / 0.0 cm Rain Rain
11:35 AM 46.4°F / 8.0°C 42.8°F / 6.0°C 87% 30.25 in / 1024.3 hPa 1.0 miles / 1.6 kilometers ENE 4.6 mph / 7.4 km/h - 0.01 in / 0.3 cm Rain Rain
11:42 AM 46.4°F / 8.0°C 42.8°F / 6.0°C 87% 30.25 in / 1024.3 hPa 2.0 miles / 3.2 kilometers ENE 3.5 mph / 5.6 km/h - 0.02 in / 0.5 cm Rain Light Rain
11:44 AM 46.4°F / 8.0°C 42.8°F / 6.0°C 87% 30.25 in / 1024.3 hPa 3.0 miles / 4.8 kilometers ENE 4.6 mph / 7.4 km/h - 0.02 in / 0.5 cm Rain Light Rain
11:53 AM 46.0°F / 7.8°C 43.0°F / 6.1°C 89% 30.25 in / 1024.3 hPa 6.0 miles / 9.7 kilometers ENE 3.5 mph / 5.6 km/h - 0.02 in / 0.5 cm   Overcast
12:53 PM 46.9°F / 8.3°C 42.1°F / 5.6°C 83% 30.25 in / 1024.4 hPa 6.0 miles / 9.7 kilometers Calm Calm - N/A   Haze
1:53 PM 48.9°F / 9.4°C 43.0°F / 6.1°C 80% 30.25 in / 1024.3 hPa 6.0 miles / 9.7 kilometers Calm Calm - N/A   Haze
2:53 PM 48.9°F / 9.4°C 43.0°F / 6.1°C 80% 30.24 in / 1024.0 hPa 5.0 miles / 8.0 kilometers Calm Calm - N/A   Haze
3:13 PM 48.2°F / 9.0°C 44.6°F / 7.0°C 87% 30.24 in / 1023.9 hPa 1.8 miles / 2.8 kilometers Calm Calm - 0.00 in / 0.0 cm Rain Light Rain
3:28 PM 46.4°F / 8.0°C 44.6°F / 7.0°C 93% 30.24 in / 1023.9 hPa 3.0 miles / 4.8 kilometers Variable 4.6 mph / 7.4 km/h - 0.01 in / 0.3 cm Rain Light Rain
3:41 PM 46.4°F / 8.0°C 42.8°F / 6.0°C 87% 30.24 in / 1023.9 hPa 5.0 miles / 8.0 kilometers North 3.5 mph / 5.6 km/h - 0.01 in / 0.3 cm Rain Light Rain
3:53 PM 46.0°F / 7.8°C 42.1°F / 5.6°C 86% 30.25 in / 1024.3 hPa 5.0 miles / 8.0 kilometers Calm Calm - 0.01 in / 0.3 cm   Overcast
4:53 PM 43.0°F / 6.1°C 42.1°F / 5.6°C 97% 30.25 in / 1024.1 hPa 5.0 miles / 8.0 kilometers Calm Calm - N/A   Scattered Clouds
5:00 PM 42.8°F / 6.0°C 41.0°F / 5.0°C 93% 30.24 in / 1023.9 hPa 1.8 miles / 2.8 kilometers Calm Calm - N/A   Partly Cloudy
5:05 PM 42.8°F / 6.0°C 41.0°F / 5.0°C 93% 30.24 in / 1023.9 hPa 0.8 miles / 1.2 kilometers Calm Calm - N/A   Scattered Clouds
5:09 PM 41.0°F / 5.0°C 41.0°F / 5.0°C 100% 30.24 in / 1023.9 hPa 1.0 miles / 1.6 kilometers Calm Calm - N/A   Mist
5:11 PM 41.0°F / 5.0°C 41.0°F / 5.0°C 100% 30.24 in / 1023.9 hPa 1.5 miles / 2.4 kilometers Calm Calm - N/A   Partly Cloudy
5:16 PM 41.0°F / 5.0°C 41.0°F / 5.0°C 100% 30.24 in / 1023.9 hPa 1.0 miles / 1.6 kilometers Calm Calm - N/A   Mist
5:24 PM 39.2°F / 4.0°C 39.2°F / 4.0°C 100% 30.24 in / 1023.9 hPa 0.5 miles / 0.8 kilometers Calm Calm - N/A Fog Fog
5:39 PM 39.2°F / 4.0°C 37.4°F / 3.0°C 93% 30.24 in / 1023.9 hPa 0.5 miles / 0.8 kilometers Calm Calm - N/A Fog Fog
5:47 PM 37.4°F / 3.0°C 37.4°F / 3.0°C 100% 30.24 in / 1023.9 hPa 0.2 miles / 0.4 kilometers Calm Calm - N/A Fog Fog
5:53 PM 37.9°F / 3.3°C 37.0°F / 2.8°C 97% 30.25 in / 1024.3 hPa 0.2 miles / 0.4 kilometers Calm Calm - N/A Fog Fog
6:08 PM 37.4°F / 3.0°C 37.4°F / 3.0°C 100% 30.24 in / 1023.9 hPa 0.5 miles / 0.8 kilometers Calm Calm - N/A Fog Fog
6:15 PM 37.4°F / 3.0°C 35.6°F / 2.0°C 93% 30.24 in / 1023.9 hPa 0.2 miles / 0.4 kilometers Calm Calm - N/A Fog Fog
6:53 PM 37.9°F / 3.3°C 37.9°F / 3.3°C 100% 30.25 in / 1024.4 hPa 0.2 miles / 0.4 kilometers ENE 3.5 mph / 5.6 km/h - N/A Fog Fog
7:17 PM 39.2°F / 4.0°C 39.2°F / 4.0°C 100% 30.26 in / 1024.6 hPa 0.2 miles / 0.4 kilometers Calm Calm - N/A Fog Fog
7:53 PM 37.0°F / 2.8°C 37.0°F / 2.8°C 100% 30.26 in / 1024.6 hPa 0.2 miles / 0.4 kilometers Calm Calm - N/A Fog Fog
8:03 PM 37.4°F / 3.0°C 37.4°F / 3.0°C 100% 30.26 in / 1024.6 hPa 0.2 miles / 0.4 kilometers Calm Calm - N/A Fog Fog
8:53 PM 36.0°F / 2.2°C 36.0°F / 2.2°C 100% 30.27 in / 1024.9 hPa 0.2 miles / 0.4 kilometers ENE 3.5 mph / 5.6 km/h - N/A Fog Fog
9:37 PM 35.6°F / 2.0°C 35.6°F / 2.0°C 100% 30.27 in / 1024.9 hPa 0.5 miles / 0.8 kilometers East 5.8 mph / 9.3 km/h - N/A Fog Fog
9:53 PM 36.0°F / 2.2°C 35.1°F / 1.7°C 97% 30.27 in / 1025.0 hPa 1.5 miles / 2.4 kilometers East 3.5 mph / 5.6 km/h - N/A   Overcast
10:01 PM 35.6°F / 2.0°C 35.6°F / 2.0°C 100% 30.27 in / 1024.9 hPa 2.0 miles / 3.2 kilometers East 4.6 mph / 7.4 km/h - N/A   Overcast
10:19 PM 35.6°F / 2.0°C 35.6°F / 2.0°C 100% 30.27 in / 1024.9 hPa 1.2 miles / 2.0 kilometers East 3.5 mph / 5.6 km/h - N/A   Overcast
10:22 PM 33.8°F / 1.0°C 33.8°F / 1.0°C 100% 30.27 in / 1024.9 hPa 0.8 miles / 1.2 kilometers East 3.5 mph / 5.6 km/h - N/A   Mist
10:46 PM 33.8°F / 1.0°C 33.8°F / 1.0°C 100% 30.28 in / 1025.3 hPa 0.2 miles / 0.4 kilometers Calm Calm - N/A Fog Fog
10:53 PM 33.1°F / 0.6°C 33.1°F / 0.6°C 100% 30.29 in / 1025.5 hPa 0.5 miles / 0.8 kilometers East 3.5 mph / 5.6 km/h - N/A Fog Fog
10:58 PM 33.8°F / 1.0°C 33.8°F / 1.0°C 100% 30.28 in / 1025.3 hPa 1.5 miles / 2.4 kilometers East 4.6 mph / 7.4 km/h - N/A   Mostly Cloudy
11:00 PM 33.8°F / 1.0°C 33.8°F / 1.0°C 100% 30.28 in / 1025.3 hPa 3.0 miles / 4.8 kilometers ENE 3.5 mph / 5.6 km/h - N/A   Mostly Cloudy
11:09 PM 33.8°F / 1.0°C 33.8°F / 1.0°C 100% 30.28 in / 1025.3 hPa 6.0 miles / 9.7 kilometers East 3.5 mph / 5.6 km/h - N/A   Scattered Clouds
11:53 PM 33.1°F / 0.6°C 33.1°F / 0.6°C 100% 30.29 in / 1025.7 hPa 7.0 miles / 11.3 kilometers East 3.5 mph / 5.6 km/h - N/A   Clear
Moon Phase
Nov. 24 Nov. 28 Dec. 06 Dec. 13 Dec. 20
Sunrise:07:38 AM (PST) Moon Rise:02:30 PM (PST)11/24
Sunset:04:31 PM (PST) Moon Set:03:48 AM (PST)11/24

Copyright © 2014 The Weather Underground, Inc.